Content
SEND FEEDBACK

Daily
Averages
Monthly
Summary
United States of America

REDDING, CALIFORNIA


Home > North America > United States > California
Elevation: 535 feet     Latitude: 40 31N     Longitude: 122 18W

WEATHER
 
SELECT A DAY
Number of Records: 187,354;   Date Range: 1/1/95 - 9/16/14
 
SHARE

PRINT THIS DATA

[ ← Previous Day ]
WEATHER ALMANAC - MAY 10, 2013
[ Next Day → ]
[ °C ]   °F
Weather ElementAverageHighLow
Temperature78.6 °F95 °F (3:53 pm)57.2 °F (5:53 am)
Dewpoint53.3 °F62.1 °F (11:53 pm)41 °F (4:53 pm)
Humidity47.9 %88 % (5:53 am)15 % (4:53 pm)
Barometer30.05 in30.12 in (5:53 am)29.97 in (6:53 pm)
Wind Speed3.4 mph8.1 mph (5:53 pm)
Weather ElementAverage
Visibility10 mi
Wind DirectionE (88.6 °)

Weather ElementTotal
Precipitation---
Cooling Degree Days11.1 (Base 65)
Growing Degree Days26.1 (Base 50)
Averaged from 22 records on May 10, 2013
WEATHER CONDITIONS BREAKOUT
WIND DIRECTION BREAKOUT
WEATHER BY HOUR - MAY 10, 2013
[ °C ]   °F
Local TimeTemperatureDewpointHumidityBarometerVisibilityWind DirectionWind SpeedGust SpeedPrecipitationEventsConditions
1:53 AM64.0 °F55.0 °F73 %30.10 in10.0 miNorthClear
2:53 AM61.0 °F54.0 °F78 %30.10 in10.0 miWest (270°)3.5 mphClear
3:53 AM62.1 °F54.0 °F75 %30.11 in10.0 miCalmClear
5:53 AM57.2 °F53.6 °F88 %30.12 in10.0 miCalmClear
6:53 AM61.0 °F54.0 °F78 %30.11 in10.0 miCalmClear
7:53 AM66.9 °F55.9 °F68 %30.12 in10.0 miNE (40°)3.5 mphClear
8:53 AM71.1 °F55.9 °F59 %30.11 in10.0 miNorth (10°)3.5 mphClear
9:53 AM75.2 °F57.2 °F53 %30.11 in10.0 miCalmClear
10:53 AM81.0 °F55.9 °F42 %30.08 in10.0 miCalmClear
11:53 AM84.9 °F55.9 °F37 %30.06 in10.0 miVariable5.8 mphClear
12:53 PM88.0 °F54.0 °F31 %30.04 in10.0 miCalmClear
1:53 PM90.0 °F53.1 °F28 %30.02 in10.0 miSW (220°)3.5 mphClear
2:53 PM93.9 °F48.0 °F21 %30.01 in10.0 miCalmClear
3:53 PM95.0 °F42.1 °F16 %29.99 in10.0 miSW (230°)5.8 mphClear
4:53 PM95.0 °F41.0 °F15 %29.98 in10.0 miSW (230°)4.6 mphClear
5:53 PM93.9 °F44.1 °F18 %29.98 in10.0 miSouth (170°)8.1 mphClear
6:53 PM93.0 °F43.0 °F18 %29.97 in10.0 miSouth (170°)5.8 mphClear
7:53 PM88.0 °F54.0 °F31 %29.98 in10.0 miSSW (200°)5.8 mphClear
8:53 PM82.0 °F59.0 °F45 %30.01 in10.0 miSouth (180°)5.8 mphClear
9:53 PM77.0 °F59.0 °F54 %30.04 in10.0 miEast (90°)5.8 mphClear
10:53 PM75.9 °F61.0 °F60 %30.05 in10.0 miESE (110°)5.8 mphClear
11:53 PM73.9 °F62.1 °F66 %30.06 in10.0 miNNE (30°)3.5 mphClear
Hourly data recorded from KRDD, located miles away from Redding, California







STORIES FROM OUR PARTNERS